Karlovy Vary, Czech Republic

9:26 AM CEST on October 22, 2017 (GMT +0200)
Karlovy Vary

Weather History for LKKV - March, 2014

Change the Weather History Date:

Sunday, March 2, 2014

  Actual Average (EDQM) Record (EDQM)
Temperature  
Mean Temperature 36 °F -  
Max Temperature 46 °F 36 °F 59 °F (1997)
Min Temperature 25 °F 27 °F 0 °F (2005)
Degree Days  
Heating Degree Days 30    
Moisture  
Dew Point 32 °F    
Average Humidity 87    
Maximum Humidity 100    
Minimum Humidity 56    
Precipitation  
Precipitation 0.00 in - - ()
Sea Level Pressure  
Sea Level Pressure 29.60 in    
Wind  
Wind Speed 3 mph ()    
Max Wind Speed 8 mph    
Max Gust Speed -    
Visibility 3.8 miles    
Events Fog    
Averages and records for this station are not official NWS values.
T = Trace of Precipitation, MM = Missing Value Source: Averaged Metar Reports

Daily Weather History Graph

Daily Weather History Graph

Search for Another Location

Airport or City:

Trip Planner

Search our weather history database for the weather conditions in past years. The results will help you decide how hot, cold, wet, or windy it might be!

Date:

Astronomy

Mar. 02, 2014 Rise Set
Actual Time 6:50 AM CET 5:51 PM CET
Civil Twilight 6:17 AM CET 6:24 PM CET
Nautical Twilight 5:40 AM CET 7:01 PM CET
Astronomical Twilight 5:02 AM CET 7:39 PM CET
Moon 7:00 AM CET (3/2) 7:42 PM CET (3/2)
Length of Visible Light 12h 06m
Length of Day
11h 01m
New Moon, 2% of the Moon is Illuminated
Mar 2
New Moon
Mar 8
First Quarter
Mar 16
Full
Mar 24
Last Quarter
Mar 30
New

Hourly Weather History & Observations

Time (CET) Temp. Windchill Dew Point Humidity Pressure Visibility Wind Dir Wind Speed Gust Speed Precip Events Conditions
12:00 AM 27 °F - 26 °F 94%  in 2 mi SSE 2.2 mph - -   Mist
12:00 AM 26.6 °F - 26.6 °F 100% 29.53 in 1.9 mi Variable 2.3 mph - N/A   Mist
1:00 AM 27 °F - 26 °F 94%  in 1 mi SSE 2.2 mph - -   Mist
1:00 AM 26.6 °F - 26.6 °F 100% 29.53 in 0.9 mi Variable 2.3 mph - N/A   Mist
2:00 AM 28 °F - 27 °F 94%  in 1 mi SE 2.2 mph - -   Mist
2:00 AM 28.4 °F 24.6 °F 26.6 °F 93% 29.56 in 1.2 mi SE 3.5 mph - N/A   Mist
3:00 AM 28 °F - 27 °F 95%  in 1 mi SE 4.5 mph - -   Mist
3:00 AM 28.4 °F 24.6 °F 26.6 °F 93% 29.53 in 0.9 mi SE 3.5 mph - N/A   Mist
4:00 AM 29 °F - 28 °F 96%  in 1 mi NNE 4.5 mph - -   Mist
4:00 AM 28.4 °F - 28.4 °F 100% 29.53 in 0.9 mi Variable 2.3 mph - N/A   Mist
4:30 AM 30.2 °F - 28.4 °F 93% 29.56 in 1.2 mi Calm Calm - N/A Fog Mist
5:00 AM 27 °F - 26 °F 93%  in 1 mi SE 2.2 mph - - Fog Patches of Fog
5:00 AM 26.6 °F - 26.6 °F 100% 29.56 in 0.9 mi Variable 1.2 mph - N/A Fog Mist
5:30 AM 26.6 °F 22.6 °F 26.6 °F 100% 29.56 in 0.9 mi East 3.5 mph - N/A Fog Mist
6:00 AM 28 °F - 27 °F 94%  in 1 mi SE 2.2 mph - - Fog Patches of Fog
6:00 AM 26.6 °F 22.6 °F 26.6 °F 100% 29.56 in 1.2 mi East 3.5 mph - N/A Fog Mist
7:00 AM 27 °F - 26 °F 96%  in 1 mi NE 2.2 mph - - Fog Patches of Fog
7:00 AM 26.6 °F - 26.6 °F 100% 29.56 in 0.6 mi Variable 1.2 mph - N/A Fog Partly Cloudy
7:30 AM 28.4 °F - 26.6 °F 93% 29.59 in 0.6 mi Calm Calm - N/A Fog Mist
8:00 AM 30 °F - 29 °F 93%  in 0 mi East 2.2 mph - - Fog Partial Fog
8:00 AM 28.4 °F - 28.4 °F 100% 29.59 in 0.6 mi Variable 1.2 mph - N/A Fog Patches of Fog
8:30 AM 30.2 °F 26.7 °F 30.2 °F 100% 29.62 in 0.7 mi South 3.5 mph - N/A Fog Mostly Cloudy
8:39 AM 32.0 °F 28.7 °F 30.2 °F 93% 29.62 in 2.5 mi SSW 3.5 mph - N/A Fog Mostly Cloudy
9:00 AM 32 °F - 31 °F 97%  in 1 mi North 2.2 mph - - Fog Light Fog
9:00 AM 32.0 °F - 32.0 °F 100% 29.62 in 3.7 mi Variable 1.2 mph - N/A Fog Mostly Cloudy
9:30 AM 33.8 °F 30.8 °F 33.8 °F 100% 29.62 in 1.3 mi NE 3.5 mph - N/A Fog Mostly Cloudy
10:00 AM 36 °F - 34 °F 91%  in 2 mi NE 2.2 mph - -   Mist
10:00 AM 35.6 °F 32.8 °F 33.8 °F 93% 29.62 in - NE 3.5 mph - N/A   Mostly Cloudy
10:30 AM 37.4 °F 34.9 °F 35.6 °F 93% 29.62 in 3.7 mi East 3.5 mph - N/A   Mostly Cloudy
11:00 AM 41 °F - 36 °F 77%  in 4 mi NE 2.2 mph - -   Mist
11:00 AM 41.0 °F - 37.4 °F 87% 29.62 in 4.3 mi Variable 2.3 mph - N/A   Scattered Clouds
11:30 AM 41.0 °F 38.0 °F 35.6 °F 81% 29.62 in 5.6 mi NNE 4.6 mph - N/A   Scattered Clouds
12:00 PM 42 °F - 35 °F 70%  in 6 mi ENE 4.5 mph - -   Partly Cloudy
12:00 PM 42.8 °F 40.1 °F 35.6 °F 76% 29.62 in 6.2 mi NE 4.6 mph - N/A   Scattered Clouds
12:30 PM 42.8 °F 39.3 °F 35.6 °F 76% 29.62 in 6.2 mi East 5.8 mph - N/A   Partly Cloudy
1:00 PM 45 °F - 35 °F 56%  in 7 mi NE 2.2 mph - -   Partly Cloudy
1:00 PM 44.6 °F 43.1 °F 35.6 °F 71% 29.62 in 6.2 mi Variable 3.5 mph - N/A   Partly Cloudy
1:30 PM 44.6 °F 41.4 °F 35.6 °F 71% 29.62 in 6.2 mi East 5.8 mph - N/A   Scattered Clouds
2:00 PM 46 °F - 35 °F 56%  in 12 mi South 4.5 mph - -   Partly Cloudy
2:00 PM 44.6 °F 43.1 °F 35.6 °F 71% 29.62 in 6.2 mi Variable 3.5 mph - N/A   Scattered Clouds
2:30 PM 44.6 °F 40.2 °F 35.6 °F 71% 29.62 in 6.2 mi SE 8.1 mph - N/A   Scattered Clouds
3:00 PM 45 °F - 36 °F 60%  in 7 mi SE 4.5 mph - -   Mostly Cloudy
3:00 PM 44.6 °F 41.4 °F 35.6 °F 71% 29.62 in 6.2 mi SE 5.8 mph - N/A   Scattered Clouds
3:30 PM 44.6 °F - 35.6 °F 71% 29.62 in 6.2 mi Variable 2.3 mph - N/A   Scattered Clouds
4:00 PM 44 °F - 36 °F 64%  in 7 mi NE 4.5 mph - -   Scattered Clouds
4:00 PM 44.6 °F 41.4 °F 35.6 °F 71% 29.62 in 6.2 mi NE 5.8 mph - N/A   Partly Cloudy
4:30 PM 44.6 °F 42.2 °F 35.6 °F 71% 29.62 in 6.2 mi ENE 4.6 mph - N/A   Partly Cloudy
5:00 PM 42 °F - 35 °F 68%  in 8 mi SE 4.5 mph - -   Scattered Clouds
5:00 PM 42.8 °F 40.1 °F 35.6 °F 76% 29.62 in - East 4.6 mph - N/A   Clear
5:30 PM 41.0 °F 36.4 °F 35.6 °F 81% 29.62 in 6.2 mi ESE 6.9 mph - N/A   Scattered Clouds
6:00 PM 39 °F - 34 °F 77%  in 6 mi SSE 4.5 mph - -   Mostly Cloudy
6:00 PM 39.2 °F 35.9 °F 35.6 °F 87% 29.62 in 6.2 mi SSE 4.6 mph - N/A   Mostly Cloudy
6:30 PM 39.2 °F 37.0 °F 35.6 °F 87% 29.62 in 6.2 mi SSE 3.5 mph - N/A   Mostly Cloudy
7:00 PM 36 °F - 33 °F 82%  in 6 mi ESE 4.5 mph - -   Partly Cloudy
7:00 PM 37.4 °F 34.9 °F 33.8 °F 87% 29.62 in 6.2 mi SE 3.5 mph - N/A   Scattered Clouds
7:30 PM 35.6 °F - 33.8 °F 93% 29.59 in 5.0 mi Variable 2.3 mph - N/A   Partly Cloudy
8:00 PM 33 °F - 31 °F 89%  in 5 mi SE 4.5 mph - - Fog Patches of Fog
8:00 PM 33.8 °F 28.6 °F 32.0 °F 93% 29.59 in 5.0 mi SE 5.8 mph - N/A Fog Fog
9:00 PM 31 °F - 30 °F 93%  in 5 mi SSE 2.2 mph - - Fog Patches of Fog
9:00 PM 32.0 °F - 30.2 °F 93% 29.59 in 5.0 mi SSE 2.3 mph - N/A Fog Fog
10:00 PM 32 °F - 30 °F 91%  in 5 mi SSE 2.2 mph - -   Mist
10:00 PM 32.0 °F 28.7 °F 30.2 °F 93% 29.56 in 5.0 mi SSE 3.5 mph - N/A   Partly Cloudy
11:00 PM 31 °F - 29 °F 91%  in 4 mi SSE 4.5 mph - -   Mist
11:00 PM 30.2 °F 25.4 °F 30.2 °F 100% 29.56 in 3.7 mi SSE 4.6 mph - N/A   Unknown